| time (UTC) | temp F | wind direction | speed MPH | gust MPH | rain 1hr in | rain 24hr in | rain mn in | humidity % | barometer mb |
| 20260507073101 | 39 | 313 | 0.0 | 0.0 | 0.00 | 0.00 | 0.00 | 79 | 1016.1 |
| 20260507071601 | 40 | 313 | 0.0 | 0.0 | 0.00 | 0.00 | 0.00 | 78 | 1016.1 |
| 20260507070050 | 40 | 313 | 0.0 | 0.0 | 0.00 | 0.00 | 0.00 | 77 | 1016.1 |
| 20260507064552 | 41 | 313 | 0.0 | 0.0 | 0.00 | 0.00 | 0.00 | 76 | 1016.2 |
| 20260507063046 | 41 | 313 | 0.0 | 0.0 | 0.00 | 0.00 | 0.00 | 75 | 1016.2 |
| 20260507061544 | 42 | 312 | 0.0 | 0.0 | 0.00 | 0.00 | 0.00 | 74 | 1016.1 |
| 20260507060047 | 42 | 313 | 0.0 | 0.0 | 0.00 | 0.00 | 0.00 | 73 | 1016.1 |
| 20260507054548 | 43 | 313 | 0.0 | 0.0 | 0.00 | 0.00 | 0.00 | 70 | 1016.2 |
| 20260507051536 | 44 | 313 | 0.0 | 0.0 | 0.00 | 0.00 | 0.00 | 69 | 1016.2 |
| 20260507050035 | 44 | 313 | 0.0 | 0.0 | 0.00 | 0.01 | 0.00 | 67 | 1016.2 |
| 20260507044534 | 45 | 313 | 0.0 | 0.0 | 0.00 | 0.01 | 0.00 | 66 | 1016.3 |
| 20260507043036 | 45 | 313 | 0.0 | 0.0 | 0.00 | 0.01 | 0.00 | 64 | 1016.3 |
| 20260507041532 | 46 | 313 | 0.0 | 0.0 | 0.00 | 0.01 | 0.00 | 63 | 1016.4 |
| 20260507040035 | 47 | 313 | 0.0 | 0.0 | 0.00 | 0.02 | 0.00 | 60 | 1016.4 |
| 20260507034531 | 47 | 313 | 0.0 | 0.0 | 0.00 | 0.02 | 0.00 | 59 | 1016.5 |
| 20260507033029 | 48 | 313 | 0.0 | 0.0 | 0.00 | 0.02 | 0.00 | 58 | 1016.5 |
| 20260507031528 | 48 | 339 | 0.0 | 5.0 | 0.00 | 0.02 | 0.00 | 57 | 1016.4 |
| 20260507030031 | 49 | 325 | 4.0 | 7.0 | 0.00 | 0.04 | 0.00 | 57 | 1016.3 |
| 20260507024526 | 49 | 327 | 3.0 | 6.0 | 0.00 | 0.04 | 0.00 | 57 | 1016.3 |
| 20260507023028 | 49 | 325 | 0.0 | 0.0 | 0.00 | 0.04 | 0.00 | 57 | 1016.1 |
| 20260507021522 | 50 | 321 | 0.0 | 0.0 | 0.00 | 0.04 | 0.00 | 57 | 1015.8 |
| 20260507020021 | 50 | 319 | 0.0 | 0.0 | 0.00 | 0.05 | 0.00 | 56 | 1015.5 |
| 20260507014520 | 51 | 319 | 0.0 | 0.0 | 0.00 | 0.05 | 0.00 | 53 | 1015.2 |
| 20260507013021 | 52 | 319 | 0.0 | 0.0 | 0.00 | 0.05 | 0.00 | 52 | 1015.2 |
| 20260507011533 | 53 | 317 | 2.0 | 6.0 | 0.00 | 0.05 | 0.00 | 50 | 1015.1 |
| 20260507010017 | 54 | 327 | 3.0 | 7.0 | 0.00 | 0.06 | 0.00 | 49 | 1015.0 |
| 20260507004518 | 55 | 310 | 2.0 | 11.0 | 0.00 | 0.06 | 0.00 | 47 | 1014.8 |
| 20260507003019 | 55 | 322 | 0.0 | 0.0 | 0.00 | 0.06 | 0.00 | 46 | 1014.6 |
| 20260507001515 | 55 | 303 | 0.0 | 2.0 | 0.00 | 0.06 | 0.00 | 44 | 1014.7 |
| 20260507000015 | 56 | 309 | 4.0 | 9.0 | 0.00 | 0.07 | 0.00 | 41 | 1014.6 |
| 20260506234515 | 58 | 297 | 3.0 | 9.0 | 0.00 | 0.07 | 0.00 | 41 | 1014.5 |
| 20260506233014 | 58 | 304 | 5.0 | 11.0 | 0.00 | 0.07 | 0.00 | 40 | 1014.5 |
| 20260506231513 | 59 | 326 | 0.0 | 11.0 | 0.00 | 0.07 | 0.00 | 42 | 1014.6 |
| 20260506230011 | 59 | 355 | 3.0 | 9.0 | 0.00 | 0.07 | 0.00 | 41 | 1014.5 |
| 20260506224522 | 60 | 349 | 4.0 | 10.0 | 0.00 | 0.07 | 0.00 | 41 | 1014.5 |
| 20260506223010 | 59 | 286 | 6.0 | 12.0 | 0.00 | 0.07 | 0.00 | 41 | 1014.6 |
| 20260506220009 | 60 | 355 | 4.0 | 11.0 | 0.00 | 0.09 | 0.00 | 42 | 1014.5 |
| 20260506214509 | 59 | 360 | 3.0 | 9.0 | 0.00 | 0.09 | 0.00 | 43 | 1014.4 |
| 20260506213013 | 59 | 292 | 5.0 | 11.0 | 0.00 | 0.09 | 0.00 | 42 | 1014.4 |
| 20260506211509 | 59 | 295 | 6.0 | 12.0 | 0.00 | 0.09 | 0.00 | 42 | 1014.3 |
| 20260506210007 | 62 | 284 | 3.0 | 12.0 | 0.00 | 0.12 | 0.00 | 39 | 1014.3 |
| 20260506204507 | 62 | 299 | 6.0 | 13.0 | 0.00 | 0.12 | 0.00 | 40 | 1014.3 |
| 20260506203006 | 59 | 348 | 4.0 | 12.0 | 0.00 | 0.12 | 0.00 | 41 | 1014.5 |
| 20260506201506 | 61 | 345 | 5.0 | 10.0 | 0.00 | 0.12 | 0.00 | 39 | 1014.6 |
| 20260506200006 | 64 | 321 | 4.0 | 9.0 | 0.00 | 0.15 | 0.00 | 41 | 1014.5 |
| 20260506194503 | 59 | 288 | 3.0 | 9.0 | 0.00 | 0.15 | 0.00 | 46 | 1014.5 |
| 20260506193002 | 59 | 315 | 4.0 | 11.0 | 0.00 | 0.15 | 0.00 | 44 | 1014.8 |
| 20260506191504 | 59 | 336 | 4.0 | 10.0 | 0.00 | 0.15 | 0.00 | 43 | 1014.7 |
| 20260506190002 | 62 | 283 | 5.0 | 10.0 | 0.00 | 0.15 | 0.00 | 40 | 1014.8 |
| 20260506184502 | 63 | 304 | 5.0 | 11.0 | 0.00 | 0.15 | 0.00 | 38 | 1014.8 |
| 20260506183111 | 61 | 310 | 4.0 | 9.0 | 0.00 | 0.15 | 0.00 | 41 | 1014.8 |
| 20260506181601 | 61 | 294 | 2.0 | 6.0 | 0.00 | 0.15 | 0.00 | 40 | 1014.8 |
| 20260506180057 | 59 | 307 | 2.0 | 9.0 | 0.00 | 0.15 | 0.00 | 49 | 1014.8 |
| 20260506174607 | 59 | 295 | 4.0 | 8.0 | 0.00 | 0.15 | 0.00 | 51 | 1015.0 |
| 20260506173056 | 55 | 296 | 1.0 | 5.0 | 0.00 | 0.15 | 0.00 | 56 | 1015.2 |
| 20260506171548 | 54 | 290 | 0.0 | 0.0 | 0.00 | 0.15 | 0.00 | 60 | 1015.3 |
| 20260506170046 | 54 | 309 | 0.0 | 0.0 | 0.00 | 0.15 | 0.00 | 63 | 1015.3 |
| 20260506164549 | 54 | 320 | 0.0 | 0.0 | 0.00 | 0.15 | 0.00 | 65 | 1015.3 |
| 20260506163056 | 53 | 321 | 0.0 | 0.0 | 0.00 | 0.15 | 0.00 | 65 | 1015.1 |
| 20260506161539 | 53 | 320 | 0.0 | 0.0 | 0.00 | 0.15 | 0.00 | 66 | 1014.7 |
| 20260506154538 | 52 | 336 | 0.0 | 0.0 | 0.00 | 0.17 | 0.00 | 67 | 1014.3 |
| 20260506153036 | 52 | 337 | 0.0 | 0.0 | 0.00 | 0.17 | 0.00 | 66 | 1014.2 |
| 20260506151540 | 53 | 348 | 0.0 | 0.0 | 0.00 | 0.17 | 0.00 | 67 | 1014.0 |
| 20260506150033 | 51 | 355 | 0.0 | 3.0 | 0.00 | 0.18 | 0.00 | 69 | 1013.9 |
| 20260506144532 | 52 | 337 | 0.0 | 1.0 | 0.00 | 0.18 | 0.00 | 67 | 1014.0 |
| 20260506143031 | 51 | 332 | 0.0 | 0.0 | 0.00 | 0.18 | 0.00 | 68 | 1014.0 |
| 20260506141525 | 49 | 326 | 0.0 | 0.0 | 0.00 | 0.18 | 0.00 | 72 | 1014.2 |
| 20260506140029 | 48 | 332 | 0.0 | 0.0 | 0.00 | 0.19 | 0.00 | 72 | 1014.1 |
| 20260506134521 | 48 | 332 | 0.0 | 0.0 | 0.00 | 0.19 | 0.00 | 74 | 1014.3 |
| 20260506133020 | 48 | 332 | 0.0 | 0.0 | 0.00 | 0.19 | 0.00 | 73 | 1014.3 |
| 20260506131521 | 48 | 331 | 0.0 | 0.0 | 0.00 | 0.19 | 0.00 | 75 | 1013.8 |
| 20260506130015 | 47 | 332 | 0.0 | 0.0 | 0.00 | 0.19 | 0.00 | 76 | 1013.5 |
| 20260506124513 | 47 | 332 | 0.0 | 0.0 | 0.00 | 0.19 | 0.00 | 79 | 1013.4 |
| 20260506123012 | 46 | 332 | 0.0 | 0.0 | 0.00 | 0.19 | 0.00 | 80 | 1012.9 |
| 20260506121508 | 46 | 331 | 0.0 | 1.0 | 0.00 | 0.19 | 0.00 | 82 | 1012.4 |
| 20260506120011 | 45 | 327 | 0.0 | 0.0 | 0.00 | 0.19 | 0.00 | 84 | 1012.5 |
| 20260506114505 | 45 | 326 | 0.0 | 0.0 | 0.00 | 0.19 | 0.00 | 86 | 1012.3 |
| 20260506113003 | 44 | 327 | 0.0 | 0.0 | 0.00 | 0.19 | 0.00 | 86 | 1012.0 |
| 20260506111502 | 44 | 327 | 0.0 | 0.0 | 0.00 | 0.19 | 0.00 | 85 | 1011.8 |
| 20260506110002 | 44 | 327 | 0.0 | 0.0 | 0.00 | 0.19 | 0.00 | 85 | 1011.8 |
| 20260506104609 | 44 | 328 | 0.0 | 0.0 | 0.00 | 0.19 | 0.00 | 86 | 1011.3 |
| 20260506103106 | 44 | 343 | 0.0 | 0.0 | 0.00 | 0.19 | 0.00 | 86 | 1011.2 |
| 20260506101632 | 44 | 355 | 0.0 | 0.0 | 0.00 | 0.19 | 0.00 | 87 | 1011.4 |
| 20260506100059 | 44 | 355 | 0.0 | 0.0 | 0.00 | 0.19 | 0.00 | 87 | 1010.9 |
| 20260506094600 | 44 | 355 | 0.0 | 0.0 | 0.00 | 0.19 | 0.00 | 88 | 1010.5 |
| 20260506093100 | 44 | 355 | 0.0 | 0.0 | 0.00 | 0.19 | 0.00 | 88 | 1010.8 |
| 20260506091555 | 44 | 360 | 0.0 | 0.0 | 0.00 | 0.19 | 0.00 | 89 | 1010.8 |
| 20260506090105 | 44 | 360 | 0.0 | 0.0 | 0.00 | 0.19 | 0.00 | 89 | 1010.7 |
| 20260506084651 | 45 | 360 | 0.0 | 0.0 | 0.00 | 0.19 | 0.00 | 89 | 1011.1 |
| 20260506083052 | 45 | 360 | 0.0 | 0.0 | 0.00 | 0.19 | 0.00 | 89 | 1011.0 |
| 20260506081548 | 46 | 360 | 0.0 | 0.0 | 0.00 | 0.19 | 0.00 | 88 | 1010.6 |